Retour au catalogue

STARLINK-30590

ActifCommunicationsVLEO
NORAD 58090·PAYLOAD·🇺🇸 United States

Lancé Oct 18, 2023 depuis Cape Canaveral Space Force Station

Loading…

Prochains Passages (prochaines 24 heures)

TLE

FraisSource: CelesTrak SupGP

Époque: Sep 14, 2026, 22:26 UTC

1 58090C 23160R   26257.93520833  .00022717  00000+0  82299-3 0  2577
2 58090  43.0023  92.7500 0001367 270.9159 165.4604 15.27560671    16

Suivez STARLINK-30590 en temps réel avec AllMySat

Download on the App Store